BEIDOU-2 G1

Last updated on Wed Nov 05 2025 00:02:46 GMT+0000 (Coordinated Universal Time)

1 36287U 10001A 25308.62058749 -.00000266 00000+0 00000+0 0 9990 2 36287 3.7659 60.7866 0002994 240.2451 106.9344 1.00274687 57917
UTC large
Height (km)
Speed (km/s)
/
Latitude / Longitude
Inclination (degrees)
Orbital Period (minutes)
Azimuth
Elevation
Range (km)
Doppler Factor

Next 0 passes for location: London (51.5072 / 0.1276)

Sorry there are no passes over London.